Location: Newark
(48.8833°N, 0.9236°W)
Time: 12:44:23
(UTC+00:00)

Altair - All Passes

Search period start: 15 November 2019 00:00
Search period end: 25 November 2019 00:00
Orbit: 1502 x 1682 km, 47.2° (Epoch: 13 November)

Date Brightness Start Highest point End Pass type
(mag) Time Alt. Az. Time Alt. Az. Time Alt. Az.
15 Nov - 01:41:37 10° SE 01:44:46 12° ESE 01:47:56 10° ESE visible
15 Nov - 03:39:00 10° SSW 03:47:21 41° SE 03:55:47 10° ENE visible
15 Nov - 05:42:04 10° WSW 05:51:13 75° SSE 06:00:35 10° E visible
15 Nov - 07:46:32 10° W 07:55:47 79° S 08:05:20 10° ESE daylight
15 Nov - 09:51:08 10° WNW 09:59:56 48° SSW 10:09:01 10° SE daylight
15 Nov - 11:57:23 10° W 12:02:53 17° SW 12:08:30 10° SSW daylight
16 Nov - 01:18:11 10° SE 01:19:49 11° ESE 01:21:27 10° ESE visible
16 Nov - 03:14:05 10° SSW 03:22:18 39° SE 03:30:33 10° ENE visible
16 Nov - 05:16:58 10° WSW 05:26:05 73° SSE 05:35:24 10° E visible
16 Nov - 07:21:23 10° W 07:30:37 80° S 07:40:09 10° ESE daylight
16 Nov - 09:25:58 10° WNW 09:34:50 50° SSW 09:43:59 10° SE daylight
16 Nov - 11:31:55 10° W 11:37:53 19° SW 11:43:59 10° SSW daylight
17 Nov - 02:49:11 10° SSW 02:57:15 36° SE 03:05:20 10° ENE visible
17 Nov - 04:51:51 10° WSW 05:00:57 71° SSE 05:10:13 10° E visible
17 Nov - 06:56:15 10° W 07:05:29 81° S 07:14:58 10° ESE daylight
17 Nov - 09:00:49 10° WNW 09:09:44 53° SSW 09:18:56 10° SE daylight
17 Nov - 11:06:30 10° W 11:12:52 21° SW 11:19:23 10° S daylight
18 Nov - 02:24:19 10° SSW 02:32:12 34° SE 02:40:06 10° E visible
18 Nov - 04:26:45 10° WSW 04:35:50 69° SSE 04:45:03 10° E visible
18 Nov - 06:31:06 10° W 06:40:19 81° S 06:49:47 10° E visible
18 Nov - 08:35:40 10° WNW 08:44:37 56° SSW 08:53:51 10° SE daylight
18 Nov - 10:41:08 10° W 10:47:51 22° SW 10:54:43 10° S daylight
19 Nov - 01:59:28 10° SSW 02:07:10 31° SE 02:14:52 10° E visible
19 Nov - 04:01:39 10° WSW 04:10:42 67° SSE 04:19:52 10° E visible
19 Nov - 06:05:58 10° W 06:15:10 82° S 06:24:36 10° E visible
19 Nov - 08:10:31 10° WNW 08:19:30 58° SSW 08:28:46 10° SE daylight
19 Nov - 10:15:49 10° W 10:22:50 24° SW 10:30:01 10° S daylight
20 Nov - 01:34:39 10° SSW 01:42:09 29° SE 01:49:37 10° E visible
20 Nov - 03:36:34 10° SW 03:45:36 64° SSE 03:54:42 10° E visible
20 Nov - 05:40:49 10° W 05:50:00 82° S 05:59:24 10° E visible
20 Nov - 07:45:22 10° WNW 07:54:23 61° SSW 08:03:40 10° SE daylight
20 Nov - 09:50:31 10° W 09:57:48 26° SW 10:05:15 10° S daylight
21 Nov - 01:09:52 10° S 01:17:07 27° SE 01:24:21 10° E visible
21 Nov - 03:11:30 10° SW 03:20:29 62° SSE 03:29:32 10° ENE visible
21 Nov - 05:15:40 10° W 05:24:51 82° S 05:34:13 10° E visible
21 Nov - 07:20:13 10° W 07:29:16 63° SSW 07:38:35 10° SE daylight
21 Nov - 09:25:15 10° W 09:32:45 28° SW 09:40:27 10° S daylight
22 Nov - 00:45:08 10° S 00:52:07 25° SE 00:59:03 10° E visible
22 Nov - 02:46:26 10° SW 02:55:23 59° SSE 03:04:21 10° ENE visible
22 Nov - 04:50:31 10° W 04:59:42 82° S 05:09:02 10° E visible
22 Nov - 06:55:05 10° W 07:04:09 66° SSW 07:13:28 10° ESE daylight
22 Nov - 09:00:01 10° W 09:07:43 31° SW 09:15:37 10° SSE daylight
23 Nov - 00:20:26 10° S 00:27:06 23° SE 00:33:44 10° E visible
23 Nov - 02:21:22 10° SW 02:30:17 57° SSE 02:39:11 10° ENE visible
23 Nov - 04:25:22 10° W 04:34:33 82° S 04:43:51 10° E visible
23 Nov - 06:29:56 10° W 06:39:01 68° SSW 06:48:20 10° ESE visible
23 Nov - 08:34:47 10° W 08:42:40 33° SW 08:50:45 10° SSE daylight
23 Nov - 23:55:47 10° S 00:02:06 21° SE 00:08:22 10° E visible
24 Nov - 01:56:21 10° SW 02:05:11 54° SSE 02:14:01 10° ENE visible
24 Nov - 04:00:13 10° W 04:09:24 81° S 04:18:42 10° E visible
24 Nov - 06:04:48 10° W 06:13:55 70° SSW 06:23:12 10° ESE visible
24 Nov - 08:09:34 10° W 08:17:37 35° SW 08:25:53 10° SSE daylight
24 Nov - 23:31:12 10° S 23:37:06 19° SE 23:42:57 10° E night (unlit)
